sat.trackr.live / text

‹ back to catalog

MERIDIAN 9

NORAD 45254 · 2020-015A

PAYLOAD ACTIVE UNKNOWN

§ Identity

Operator
Country
CIS
Launch date
2020-02-20
Launch site
PLMSC
Launch vehicle
Mass (kg)
RCS (m²)

External: N2YO · Heavens-Above · Gunter

§ Orbital elements

Epoch: 2026-05-24T00:58:29.832384Z

Period
717.84 min
Inclination
65.5249°
Eccentricity
0.6864966
Mean motion
2.00601922 rev/d
Perigee alt
1,947.6 km
Apogee alt
38,410.1 km
Semi-major
26,557.0 km
B*
0.0000e+0
RAAN
321.5337°
Arg perigee
278.3237°
Mean anomaly
15.0398°
Rev number
4,580

§ Raw data

MERIDIAN 91 45254U 20015A   26144.04062306 -.00000166  00000+0  00000+0 0  99982 45254  65.5249 321.5337 6864966 278.3237  15.0398  2.00601922 45809

JSON: /api/v1/satellites/45254 · /tle

For live sub-satellite position, see the globe view (requires WebGL).

§ Visibility from observer

Set your observer location to see the next 7 days of passes ≥ 10°. The values pass through the URL so the page stays shareable.

No JS? Fill the form by hand. The geolocation button needs JavaScript.